This is the latest recevied weather packets stored in our database for station/object RN1M-13. If no packets are shown the sender has not sent any weather packets the latest 10 day(s).
| Time | Temp. | Humidity | Pressure | Rain* | Wind** | Luminosity | Snow |
|---|---|---|---|---|---|---|---|
| 1777842055 | 11.67° C | 100% | 1005.6 hPa | - | - | - | - |
| 1777841155 | 11.67° C | 100% | 1005.6 hPa | - | - | - | - |
| 1777840255 | 11.67° C | 100% | 1005.9 hPa | - | - | - | - |
| 1777839355 | 11.11° C | 100% | 1005.8 hPa | - | - | - | - |
| 1777838456 | 11.11° C | 100% | 1005.9 hPa | - | - | - | - |
| 1777837564 | 11.11° C | 100% | 1005.9 hPa | - | - | - | - |
| 1777836664 | 10.56° C | 100% | 1006.2 hPa | - | - | - | - |
| 1777835764 | 11.11° C | 100% | 1006.3 hPa | - | - | - | - |
| 1777834864 | 11.11° C | 100% | 1006.5 hPa | - | - | - | - |
| 1777833964 | 11.67° C | 100% | 1006.4 hPa | - | - | - | - |
| 1777833064 | 12.22° C | 100% | 1006.5 hPa | - | - | - | - |
| 1777832204 | 12.22° C | 100% | 1006.6 hPa | - | - | - | - |
| 1777832164 | 12.22° C | 100% | 1006.6 hPa | - | - | - | - |
| 1777831263 | 12.22° C | 100% | 1006.5 hPa | - | - | - | - |
| 1777830363 | 12.78° C | 100% | 1006.3 hPa | - | - | - | - |
| 1777829463 | 12.78° C | 100% | 1006.2 hPa | - | - | - | - |
| 1777828563 | 12.78° C | 100% | 1006.2 hPa | - | - | - | - |
| 1777827665 | 13.33° C | 100% | 1006.3 hPa | - | - | - | - |
| 1777826772 | 13.33° C | 100% | 1006.3 hPa | - | - | - | - |
| 1777825871 | 13.33° C | 100% | 1006.4 hPa | - | - | - | - |
| 1777824971 | 13.33° C | 100% | 1006.2 hPa | - | - | - | - |
| 1777824071 | 13.89° C | 100% | 1006.3 hPa | - | - | - | - |
| 1777823171 | 14.44° C | 100% | 1006.4 hPa | - | - | - | - |
| 1777822271 | 13.89° C | 100% | 1006.4 hPa | - | - | - | - |
| 1777821371 | 15° C | 100% | 1006.5 hPa | - | - | - | - |
* Rain since midnight (hover to see other rain measurements)
** Current wind speed in m/s (hover to see current wind gust speed)